PROFILE

 METAR AND TAF INFORMATION
ADDS - METARS form results

(1931 UTC 30 October 2020)
http://aviationweather.gov/metar/data/
 
TNCA 301900Z 04009KT 010V080 9999 SCT025 31/25 Q1008 NOSIG
TAF TNCA 3018/3118 06005KT 9999 SCT018 BKN040 TEMPO 3020/3116 6000 SHRA BKN014 BKN030 PROB40 TEMPO 3020/3112 VRB05G30KT 3000 TSRA SCT012CB 

 AIRPORT MAP

 RUNWAY INFORMATION
Runway 11 Runway length 9000 ft Runway width 148 ft
Runway elevation 12 ft Runway displaced threshold 0 ft Runway heading 104
Runway 29 Runway length 9000 ft Runway width 148 ft
Runway elevation 62 ft Runway displaced threshold 0 ft Runway heading 284

 AIRPORT FREQUENCIES
Type ATIS Name ATIS Frequency 132.1 MHZ
Type GND Name GND Frequency 121.9 MHZ
Type MISC Name SEARCH AND Frequency 123.1 MHZ
Type RMP Name BEATRIX AP Frequency 121.6 MHZ
Type TWR Name BEATRIX TW Frequency 120.9 MHZ

 AIRPORT NEAR NAVIGATION AIDS
Type VOR-DME Name Aruba Frequency 112500 KHZ
Type VOR-DME Name Reina Beatrix Frequency 113800 KHZ